sat.trackr.live / text

‹ back to catalog

STARLINK-31834

NORAD 59721 · 2024-088P

PAYLOAD ACTIVE UNKNOWN

§ Identity

Operator
Country
US
Launch date
2024-05-10
Launch site
AFWTR
Launch vehicle
Mass (kg)
RCS (m²)

Purposes: comms

External: N2YO · Heavens-Above · Gunter

§ Orbital elements

Epoch: 2026-05-24T17:50:07.262304Z

Period
94.11 min
Inclination
53.1598°
Eccentricity
0.0001084
Mean motion
15.30195753 rev/d
Perigee alt
474.5 km
Apogee alt
476.0 km
Semi-major
6,853.4 km
B*
2.6666e-5
RAAN
146.8356°
Arg perigee
72.7246°
Mean anomaly
287.3874°
Rev number
11,550

§ Raw data

STARLINK-318341 59721U 24088P   26144.74313961  .00000431  00000+0  26666-4 0  99942 59721  53.1598 146.8356 0001084  72.7246 287.3874 15.30195753115501

JSON: /api/v1/satellites/59721 · /tle

For live sub-satellite position, see the globe view (requires WebGL).

§ Visibility from observer

Set your observer location to see the next 7 days of passes ≥ 10°. The values pass through the URL so the page stays shareable.

No JS? Fill the form by hand. The geolocation button needs JavaScript.